Weather History for Glendive, MT

Change the Weather History Date:

Wednesday, January 2, 2013

  Actual Average Record
Temperature  
Mean Temperature 22 °F -  
Max Temperature 26 °F 23 °F 44 °F (2007)
Min Temperature 19 °F 7 °F -14 °F (1999)
Degree Days  
Heating Degree Days 42    
Moisture  
Dew Point 17 °F    
Average Humidity 80    
Maximum Humidity 93    
Minimum Humidity 68    
Precipitation  
Precipitation 0.00 in - - ()
Sea Level Pressure  
Sea Level Pressure 30.14 in    
Wind  
Wind Speed 17 mph (NW)    
Max Wind Speed 25 mph    
Max Gust Speed 32 mph    
Visibility 9 miles    
Events      
Averages and records for this station are not official NWS values.
T = Trace of Precipitation, MM = Missing Value Source: NWS Daily Summary

Daily Weather History Graph

Daily Weather History Graph

Search for Another Location

Airport:

Trip Planner

Search our weather history database for the weather conditions in past years. The results will help you decide how hot, cold, wet, or windy it might be!

Date:

Astronomy

Jan. 02, 2013 Rise Set
Actual Time 7:45 AM MST 4:21 PM MST
Civil Twilight 7:10 AM MST 4:56 PM MST
Nautical Twilight 6:31 AM MST 5:35 PM MST
Astronomical Twilight 5:54 AM MST 6:12 PM MST
Moon 10:20 PM MST (1/2) 10:06 AM MST (1/2)
Length of Visible Light 9h 46m
Length of Day
8h 36m
Waning Gibbous, 74% of the Moon is Illuminated
Jan 2
Waning Gibbous
Jan 4
Last Quarter
Jan 11
New
Jan 18
First Quarter
Jan 26
Full

Hourly Weather History & Observations

Time (MST) Temp. Windchill Dew Point Humidity Pressure Visibility Wind Dir Wind Speed Gust Speed Precip Events Conditions
12:15 AM 26.6 °F 12.0 °F 21.2 °F 80% 30.03 in 10.0 mi WNW 23.0 mph 32.2 mph N/A   Overcast
12:35 AM 26.6 °F 13.1 °F 21.2 °F 80% 30.02 in 8.0 mi WNW 19.6 mph 28.8 mph N/A   Overcast
12:56 AM 26.6 °F 13.4 °F 23.0 °F 86% 30.03 in 10.0 mi WNW 18.4 mph 27.6 mph N/A   Overcast
1:15 AM 26.6 °F 14.3 °F 21.2 °F 80% 30.03 in 10.0 mi WNW 16.1 mph 26.5 mph N/A   Overcast
1:35 AM 26.6 °F 12.0 °F 21.2 °F 80% 30.02 in 10.0 mi WNW 23.0 mph 28.8 mph N/A   Overcast
2:15 AM 26.6 °F 11.4 °F 21.2 °F 80% 30.02 in 10.0 mi WNW 25.3 mph 31.1 mph N/A   Overcast
2:35 AM 26.6 °F 12.7 °F 19.4 °F 74% 30.03 in 10.0 mi WNW 20.7 mph 28.8 mph N/A   Overcast
2:55 AM 26.6 °F 11.7 °F 19.4 °F 74% 30.04 in 10.0 mi WNW 24.2 mph 31.1 mph N/A   Overcast
3:15 AM 26.6 °F 12.4 °F 19.4 °F 74% 30.04 in 10.0 mi WNW 21.9 mph 26.5 mph N/A   Overcast
3:35 AM 24.8 °F 11.9 °F 19.4 °F 80% 30.05 in 10.0 mi WNW 16.1 mph 23.0 mph N/A   Overcast
3:55 AM 24.8 °F 10.7 °F 19.4 °F 80% 30.05 in 10.0 mi WNW 19.6 mph 23.0 mph N/A   Overcast
4:15 AM 24.8 °F 10.7 °F 17.6 °F 74% 30.05 in 10.0 mi WNW 19.6 mph 25.3 mph N/A   Overcast
4:35 AM 24.8 °F 11.5 °F 19.4 °F 80% 30.05 in 10.0 mi WNW 17.3 mph - N/A   Overcast
5:15 AM 24.8 °F 11.5 °F 17.6 °F 74% 30.04 in 10.0 mi WNW 17.3 mph - N/A   Mostly Cloudy
5:35 AM 23.0 °F 10.1 °F 15.8 °F 74% 30.04 in 10.0 mi West 15.0 mph - N/A   Clear
5:55 AM 21.2 °F 7.8 °F 14.0 °F 74% 30.04 in 10.0 mi West 15.0 mph - N/A   Clear
6:15 AM 23.0 °F 10.1 °F 15.8 °F 74% 30.04 in 10.0 mi West 15.0 mph - N/A   Mostly Cloudy
6:35 AM 21.2 °F 7.8 °F 15.8 °F 80% 30.04 in 10.0 mi West 15.0 mph - N/A   Overcast
6:55 AM 21.2 °F 6.4 °F 14.0 °F 74% 30.05 in 10.0 mi WNW 18.4 mph 27.6 mph N/A   Overcast
7:15 AM 21.2 °F 6.8 °F 12.2 °F 68% 30.06 in 10.0 mi West 17.3 mph - N/A   Overcast
7:35 AM 21.2 °F 6.0 °F 14.0 °F 74% 30.06 in 10.0 mi WNW 19.6 mph - N/A   Overcast
7:55 AM 21.2 °F 6.4 °F 15.8 °F 80% 30.06 in 10.0 mi WNW 18.4 mph 23.0 mph N/A   Overcast
8:15 AM 21.2 °F 7.3 °F 15.8 °F 80% 30.06 in 10.0 mi WNW 16.1 mph - N/A   Overcast
8:35 AM 21.2 °F 6.4 °F 15.8 °F 80% 30.07 in 10.0 mi WNW 18.4 mph 23.0 mph N/A   Overcast
8:55 AM 23.0 °F 8.7 °F 15.8 °F 74% 30.07 in 10.0 mi NW 18.4 mph 23.0 mph N/A   Overcast
9:15 AM 23.0 °F 9.2 °F 17.6 °F 80% 30.08 in 10.0 mi NW 17.3 mph 21.9 mph N/A   Overcast
9:35 AM 23.0 °F 7.6 °F 17.6 °F 80% 30.09 in 10.0 mi NW 21.9 mph 25.3 mph N/A   Overcast
9:55 AM 23.0 °F 7.6 °F 17.6 °F 80% 30.10 in 10.0 mi NW 21.9 mph 27.6 mph N/A   Overcast
10:15 AM 23.0 °F 7.2 °F 17.6 °F 80% 30.12 in 2.0 mi NW 23.0 mph 27.6 mph N/A   Overcast
10:35 AM 23.0 °F 7.6 °F 19.4 °F 86% 30.12 in 3.0 mi NW 21.9 mph 28.8 mph N/A   Overcast
10:55 AM 23.0 °F 6.9 °F 17.6 °F 80% 30.12 in 8.0 mi NW 24.2 mph 31.1 mph N/A   Overcast
11:15 AM 23.0 °F 6.6 °F 17.6 °F 80% 30.13 in 9.0 mi NW 25.3 mph - N/A   Overcast
11:35 AM 23.0 °F 7.2 °F 17.6 °F 80% 30.13 in 10.0 mi NW 23.0 mph 32.2 mph N/A   Overcast
11:55 AM 24.8 °F 9.3 °F 19.4 °F 80% 30.13 in 10.0 mi NW 24.2 mph 29.9 mph N/A   Overcast
12:15 PM 24.8 °F 10.0 °F 19.4 °F 80% 30.14 in 10.0 mi NW 21.9 mph 28.8 mph N/A   Overcast
12:35 PM 24.8 °F 10.3 °F 19.4 °F 80% 30.14 in 10.0 mi NW 20.7 mph 26.5 mph N/A   Overcast
12:55 PM 24.8 °F 10.0 °F 19.4 °F 80% 30.15 in 10.0 mi NW 21.9 mph - N/A   Overcast
1:15 PM 24.8 °F 10.3 °F 19.4 °F 80% 30.15 in 10.0 mi NW 20.7 mph 26.5 mph N/A   Overcast
1:35 PM 24.8 °F 10.3 °F 17.6 °F 74% 30.16 in 10.0 mi NW 20.7 mph 25.3 mph N/A   Overcast
1:55 PM 24.8 °F 10.7 °F 17.6 °F 74% 30.17 in 10.0 mi NW 19.6 mph 23.0 mph N/A   Overcast
2:15 PM 23.0 °F 9.2 °F 19.4 °F 86% 30.18 in 5.0 mi NNW 17.3 mph - N/A   Overcast
2:35 PM 23.0 °F 10.6 °F 19.4 °F 86% 30.19 in 7.0 mi NNW 13.8 mph - N/A   Overcast
2:55 PM 23.0 °F 12.4 °F 19.4 °F 86% 30.20 in 5.0 mi North 10.4 mph - N/A   Overcast
3:15 PM 21.2 °F 9.5 °F 17.6 °F 86% 30.21 in 2.5 mi NNW 11.5 mph - N/A   Overcast
4:15 PM 21.2 °F 10.9 °F 15.8 °F 80% 30.24 in 10.0 mi NW 9.2 mph - N/A   Overcast
4:55 PM 21.2 °F 11.7 °F 15.8 °F 80% 30.25 in 10.0 mi NW 8.1 mph - N/A   Overcast
5:15 PM 21.2 °F 9.5 °F 15.8 °F 80% 30.25 in 10.0 mi NNW 11.5 mph - N/A   Overcast
5:35 PM 19.4 °F 7.2 °F 15.8 °F 86% 30.25 in 10.0 mi NNW 11.5 mph - N/A   Overcast
5:55 PM 19.4 °F 10.4 °F 15.8 °F 86% 30.26 in 10.0 mi NNW 6.9 mph - N/A   Overcast
6:15 PM 19.4 °F 10.4 °F 15.8 °F 86% 30.26 in 10.0 mi NNW 6.9 mph - N/A   Overcast
6:35 PM 19.4 °F 14.3 °F 15.8 °F 86% 30.27 in 8.0 mi NNW 3.5 mph - N/A   Overcast
7:15 PM 19.4 °F - 15.8 °F 86% 30.28 in 10.0 mi Calm Calm - N/A   Overcast
7:55 PM 19.4 °F 14.3 °F 17.6 °F 93% 30.27 in 10.0 mi SW 3.5 mph - N/A   Overcast
8:15 PM 19.4 °F 14.3 °F 15.8 °F 86% 30.27 in 10.0 mi West 3.5 mph - N/A   Overcast
8:35 PM 19.4 °F 12.8 °F 15.8 °F 86% 30.28 in 10.0 mi WNW 4.6 mph - N/A   Overcast
8:55 PM 19.4 °F - 15.8 °F 86% 30.28 in 10.0 mi Calm Calm - N/A   Overcast
9:15 PM 19.4 °F - 15.8 °F 86% 30.28 in 10.0 mi Calm Calm - N/A   Overcast
9:35 PM 19.4 °F 14.3 °F 15.8 °F 86% 30.28 in 10.0 mi WSW 3.5 mph - N/A   Overcast
9:55 PM 19.4 °F - 15.8 °F 86% 30.29 in 10.0 mi Calm Calm - N/A   Overcast
10:15 PM 21.2 °F 14.9 °F 15.8 °F 80% 30.28 in 10.0 mi NW 4.6 mph - N/A   Overcast
10:35 PM 21.2 °F 14.9 °F 15.8 °F 80% 30.28 in 10.0 mi WNW 4.6 mph - N/A   Overcast
10:55 PM 21.2 °F 12.6 °F 15.8 °F 80% 30.27 in 10.0 mi WNW 6.9 mph - N/A   Overcast
11:15 PM 21.2 °F 10.9 °F 15.8 °F 80% 30.27 in 10.0 mi WNW 9.2 mph - N/A   Overcast
11:35 PM 21.2 °F 13.6 °F 15.8 °F 80% 30.26 in 10.0 mi WNW 5.8 mph - N/A   Overcast
11:55 PM 19.4 °F 11.5 °F 15.8 °F 86% 30.24 in 10.0 mi West 5.8 mph - N/A   Overcast